Location: Munkebjergskolens Observatorium
(55.3864°N, 10.3987°E)
Time: 23:12:26
(UTC+02:00)

STRAND 1 - Visible Passes

Search period start: 31 March 2023 00:00
Search period end: 10 April 2023 00:00
Orbit: 766 x 780 km, 98.4° (Epoch: 31 March)

Date Brightness Start Highest point End Pass type
(mag) Time Alt. Az. Time Alt. Az. Time Alt. Az.
31 Mar ? 05:47:20 10° ESE 05:51:51 32° ENE 05:56:22 10° N visible
31 Mar ? 21:07:29 10° N 21:12:25 52° WNW 21:17:20 10° SW visible
31 Mar ? 22:48:09 10° NNW 22:50:33 13° NW 22:52:57 10° WNW visible
01 Apr ? 05:14:05 10° E 05:17:48 21° NE 05:21:30 10° N visible
01 Apr ? 20:32:56 10° NNE 20:38:05 89° WNW 20:43:11 10° SSW visible
01 Apr ? 22:12:55 10° N 22:16:39 21° NW 22:20:21 10° W visible
02 Apr ? 04:41:31 10° ENE 04:43:52 13° NE 04:46:15 10° NNE visible
02 Apr ? 21:38:03 10° N 21:42:35 33° WNW 21:47:05 10° WSW visible
03 Apr ? 05:43:23 10° ESE 05:47:49 31° ENE 05:52:15 10° N visible
03 Apr ? 21:03:23 10° N 21:08:22 55° WNW 21:13:19 10° SW visible
03 Apr ? 22:43:57 10° NNW 22:46:33 14° NW 22:49:08 10° WNW visible
04 Apr ? 05:10:11 10° E 05:13:46 20° NE 05:17:21 10° N visible
04 Apr ? 20:28:51 10° NNE 20:34:00 86° ESE 20:39:06 10° SSW visible
04 Apr ? 22:08:47 10° N 22:12:37 22° NW 22:16:26 10° WSW visible
05 Apr ? 04:37:43 10° ENE 04:39:52 13° NE 04:42:00 10° NNE visible
05 Apr ? 21:33:56 10° N 21:38:32 35° WNW 21:43:06 10° SW visible
06 Apr ? 05:39:25 10° ESE 05:43:46 29° ENE 05:48:07 10° N visible
06 Apr ? 20:59:17 10° N 21:04:17 58° WNW 21:09:17 10° SW visible
06 Apr ? 22:39:45 10° NNW 22:42:31 15° NW 22:45:18 10° W visible
07 Apr ? 05:06:17 10° E 05:09:44 19° NE 05:13:11 10° N visible
07 Apr ? 22:04:38 10° N 22:08:34 23° NW 22:12:30 10° WSW visible
08 Apr ? 04:33:57 10° ENE 04:35:51 12° NE 04:37:43 10° NNE visible
08 Apr ? 21:29:48 10° N 21:34:28 37° WNW 21:39:06 10° SW visible
08 Apr ? 23:12:06 10° NW 23:12:19 10° NW 23:12:32 10° NW visible
09 Apr ? 05:35:26 10° ESE 05:39:42 28° ENE 05:43:58 10° N visible
09 Apr ? 20:55:09 10° N 21:00:11 62° WNW 21:05:13 10° SSW visible
09 Apr ? 22:35:33 10° NNW 22:38:29 16° NW 22:41:25 10° W visible
